Tracking 20040 objects as of 19-Nov-2019
Live streaming from Space Station
objects crossing your sky now

LEMUR 2 ANDIS

Track LEMUR 2 ANDIS now!
10-day predictions
LEMUR 2 ANDIS is classified as:


NORAD ID: 42838
Int'l Code: 2017-042P
Perigee: 590.8 km
Apogee: 607.0 km
Inclination: 97.5 °
Period: 96.5 minutes
Semi major axis: 6969 km
RCS: Unknown
Launch date: July 14, 2017
Source: United States (US)
Launch site: TYURATAM MISSILE AND SPACE COMPLEX (TTMTR)
aabbcc
Your satellite tracking list
Your tracking list is empty




NASA's NSSDC Master Catalog

Two Line Element Set (TLE):
1 42838U 17042P   19322.41571234  .00000206  00000-0  25638-4 0  9999
2 42838  97.5473 209.8320 0011648 267.4701  92.5185 14.91981838127768
Source of the keplerian elements: AFSPC